Roseau, MN

6:50 AM CDT on July 26, 2017 (GMT -0500)
Roseau Municipal-Billberg

Weather History for KROX - July, 2013

Change the Weather History Date:

Sunday, July 14, 2013

  Actual Average Record
Temperature  
Mean Temperature 73 °F -  
Max Temperature 80 °F 78 °F 91 °F (2006)
Min Temperature 64 °F 55 °F 41 °F (1952)
Cooling Degree Days 8    
Growing Degree Days 23 (Base 50)    
Moisture  
Dew Point 63 °F    
Average Humidity 73    
Maximum Humidity 88    
Minimum Humidity 54    
Precipitation  
Precipitation 0.00 in - - ()
Sea Level Pressure  
Sea Level Pressure 30.09 in    
Wind  
Wind Speed 6 mph (North)    
Max Wind Speed 14 mph    
Max Gust Speed -    
Visibility 9 miles    
Events Thunderstorm    
Averages and records for this station are not official NWS values.
T = Trace of Precipitation, MM = Missing Value Source: NWS Daily Summary

Daily Weather History Graph

Daily Weather History Graph

Search for Another Location

Airport or City:

Trip Planner

Search our weather history database for the weather conditions in past years. The results will help you decide how hot, cold, wet, or windy it might be!

Date:

Astronomy

Jul. 14, 2013 Rise Set
Actual Time 5:34 AM CDT 9:22 PM CDT
Civil Twilight 4:54 AM CDT 10:02 PM CDT
Nautical Twilight 3:58 AM CDT 10:57 PM CDT
Astronomical Twilight 2:34 AM CDT 12:20 AM CDT
Moon 12:30 PM CDT (7/14) 11:54 PM CDT (7/14)
Length of Visible Light 17h 08m
Length of Day
15h 47m
Waxing Crescent, 35% of the Moon is Illuminated
Jul 14
Waxing Crescent
Jul 15
First Quarter
Jul 22
Full
Jul 29
Last Quarter
Aug 6
New

Hourly Weather History & Observations

Time (CDT) Temp. Heat Index Dew Point Humidity Pressure Visibility Wind Dir Wind Speed Gust Speed Precip Events Conditions
12:15 AM 71.6 °F - 66.2 °F 83% 30.00 in 10.0 mi SSW 4.6 mph - N/A   Scattered Clouds
12:34 AM 73.4 °F - 66.2 °F 78% 30.00 in 10.0 mi SSW 4.6 mph - N/A   Mostly Cloudy
12:54 AM 71.6 °F - 66.2 °F 83% 30.00 in 10.0 mi South 4.6 mph - N/A   Scattered Clouds
1:15 AM 73.4 °F - 68.0 °F 83% 30.00 in 10.0 mi South 8.1 mph - N/A   Scattered Clouds
1:34 AM 73.4 °F - 68.0 °F 83% 30.00 in 10.0 mi South 6.9 mph - N/A Thunderstorm Clear
1:54 AM 73.4 °F - 68.0 °F 83% 30.01 in 10.0 mi South 5.8 mph - N/A   Clear
2:14 AM 71.6 °F - 66.2 °F 83% 30.00 in 7.0 mi WSW 4.6 mph - N/A   Scattered Clouds
2:34 AM 73.4 °F - 68.0 °F 83% 29.99 in 10.0 mi South 5.8 mph - N/A   Overcast
2:55 AM 73.4 °F - 66.2 °F 78% 29.99 in 7.0 mi South 6.9 mph - N/A   Mostly Cloudy
3:14 AM 71.6 °F - 66.2 °F 83% 29.98 in 7.0 mi South 6.9 mph - N/A   Mostly Cloudy
3:34 AM 71.6 °F - 66.2 °F 83% 29.99 in 7.0 mi SSW 5.8 mph - N/A   Scattered Clouds
3:55 AM 71.6 °F - 64.4 °F 78% 29.98 in 5.0 mi South 6.9 mph - N/A   Haze
4:14 AM 69.8 °F - 64.4 °F 83% 29.99 in 5.0 mi South 5.8 mph - N/A   Haze
4:34 AM 69.8 °F - 64.4 °F 83% 29.99 in 5.0 mi SSW 5.8 mph - N/A   Haze
4:54 AM 69.8 °F - 64.4 °F 83% 29.99 in 5.0 mi SSW 5.8 mph - N/A   Haze
5:14 AM 69.8 °F - 64.4 °F 83% 30.00 in 5.0 mi SSW 6.9 mph - N/A   Haze
5:34 AM 69.8 °F - 64.4 °F 83% 30.00 in 5.0 mi South 5.8 mph - N/A   Haze
5:54 AM 69.8 °F - 64.4 °F 83% 30.01 in 4.0 mi WSW 3.5 mph - N/A   Haze
6:14 AM 71.6 °F - 66.2 °F 83% 30.00 in 5.0 mi West 6.9 mph - N/A   Haze
6:34 AM 71.6 °F - 64.4 °F 78% 30.01 in 3.0 mi WNW 10.4 mph - N/A   Haze
6:54 AM 69.8 °F - 64.4 °F 83% 30.02 in 10.0 mi NW 5.8 mph - N/A   Mostly Cloudy
7:14 AM 69.8 °F - 64.4 °F 83% 30.02 in 10.0 mi NW 5.8 mph - N/A   Scattered Clouds
7:34 AM 69.8 °F - 64.4 °F 83% 30.03 in 10.0 mi NW 6.9 mph - N/A   Clear
7:54 AM 69.8 °F - 64.4 °F 83% 30.04 in 10.0 mi NNW 5.8 mph - N/A   Clear
8:14 AM 69.8 °F - 60.8 °F 73% 30.05 in 10.0 mi NNW 10.4 mph - N/A   Clear
8:34 AM 68.0 °F - 60.8 °F 78% 30.06 in 10.0 mi NNW 11.5 mph - N/A   Clear
8:54 AM 66.2 °F - 57.2 °F 73% 30.07 in 10.0 mi NNW 11.5 mph - N/A   Clear
9:15 AM 66.2 °F - 57.2 °F 73% 30.08 in 10.0 mi NNW 13.8 mph - N/A   Clear
9:34 AM 66.2 °F - 57.2 °F 73% 30.10 in 10.0 mi NNW 9.2 mph - N/A   Clear
9:54 AM 69.8 °F - 57.2 °F 64% 30.10 in 10.0 mi North 11.5 mph - N/A   Clear
10:14 AM 69.8 °F - 59.0 °F 68% 30.11 in 10.0 mi North 11.5 mph - N/A   Clear
10:34 AM 69.8 °F - 59.0 °F 68% 30.12 in 10.0 mi North 5.8 mph - N/A   Clear
10:54 AM 69.8 °F - 60.8 °F 73% 30.12 in 10.0 mi NNW 8.1 mph - N/A   Scattered Clouds
11:14 AM 71.6 °F - 59.0 °F 64% 30.12 in 10.0 mi NNE 8.1 mph - N/A   Mostly Cloudy
11:34 AM 71.6 °F - 60.8 °F 69% 30.13 in 10.0 mi NNE 4.6 mph - N/A   Mostly Cloudy
11:54 AM 71.6 °F - 60.8 °F 69% 30.13 in 10.0 mi North 3.5 mph - N/A   Scattered Clouds
12:14 PM 73.4 °F - 62.6 °F 69% 30.12 in 10.0 mi NNE 6.9 mph - N/A   Clear
12:34 PM 75.2 °F - 62.6 °F 65% 30.13 in 10.0 mi North 8.1 mph - N/A   Clear
12:54 PM 73.4 °F - 62.6 °F 69% 30.13 in 10.0 mi North 6.9 mph - N/A   Scattered Clouds
1:15 PM 75.2 °F - 62.6 °F 65% 30.13 in 10.0 mi NNE 6.9 mph - N/A   Scattered Clouds
1:34 PM 75.2 °F - 62.6 °F 65% 30.13 in 10.0 mi North 8.1 mph - N/A   Scattered Clouds
1:54 PM 75.2 °F - 62.6 °F 65% 30.12 in 10.0 mi North 9.2 mph - N/A   Scattered Clouds
2:15 PM 75.2 °F - 60.8 °F 61% 30.13 in 10.0 mi North 5.8 mph - N/A   Scattered Clouds
2:34 PM 77.0 °F - 64.4 °F 65% 30.13 in 10.0 mi North 4.6 mph - N/A   Scattered Clouds
2:54 PM 77.0 °F - 62.6 °F 61% 30.13 in 10.0 mi North 6.9 mph - N/A   Scattered Clouds
3:15 PM 78.8 °F - 64.4 °F 61% 30.13 in 10.0 mi North 4.6 mph - N/A   Scattered Clouds
3:34 PM 78.8 °F - 62.6 °F 57% 30.14 in 10.0 mi NNW 8.1 mph - N/A   Clear
3:54 PM 78.8 °F - 64.4 °F 61% 30.14 in 10.0 mi North 8.1 mph - N/A   Clear
4:15 PM 78.8 °F - 64.4 °F 61% 30.14 in 10.0 mi North 4.6 mph - N/A   Clear
4:34 PM 80.6 °F 81.8 °F 62.6 °F 54% 30.14 in 10.0 mi NE 4.6 mph - N/A   Clear
4:54 PM 80.6 °F 81.8 °F 62.6 °F 54% 30.14 in 10.0 mi Calm Calm - N/A   Clear
5:14 PM 80.6 °F 81.8 °F 62.6 °F 54% 30.14 in 10.0 mi Calm Calm - N/A   Scattered Clouds
5:34 PM 80.6 °F 81.8 °F 62.6 °F 54% 30.14 in 10.0 mi Calm Calm - N/A   Clear
5:54 PM 80.6 °F 82.7 °F 66.2 °F 61% 30.14 in 10.0 mi ENE 4.6 mph - N/A   Clear
6:14 PM 78.8 °F - 64.4 °F 61% 30.14 in 10.0 mi East 5.8 mph - N/A   Clear
6:34 PM 78.8 °F - 66.2 °F 65% 30.15 in 10.0 mi ENE 4.6 mph - N/A   Clear
6:54 PM 78.8 °F - 66.2 °F 65% 30.15 in 10.0 mi East 5.8 mph - N/A   Clear
7:14 PM 77.0 °F - 64.4 °F 65% 30.15 in 10.0 mi Calm Calm - N/A   Clear
7:34 PM 73.4 °F - 66.2 °F 78% 30.15 in 10.0 mi East 3.5 mph - N/A   Clear
7:54 PM 75.2 °F - 64.4 °F 69% 30.15 in 10.0 mi East 4.6 mph - N/A   Clear
8:14 PM 73.4 °F - 64.4 °F 73% 30.16 in 10.0 mi ESE 4.6 mph - N/A   Clear
8:34 PM 73.4 °F - 62.6 °F 69% 30.16 in 10.0 mi ESE 5.8 mph - N/A   Clear
8:54 PM 71.6 °F - 62.6 °F 73% 30.17 in 10.0 mi ESE 3.5 mph - N/A   Scattered Clouds
9:14 PM 71.6 °F - 62.6 °F 73% 30.17 in 10.0 mi East 3.5 mph - N/A   Scattered Clouds
9:34 PM 68.0 °F - 62.6 °F 83% 30.18 in 10.0 mi Calm Calm - N/A   Clear
9:54 PM 66.2 °F - 62.6 °F 88% 30.18 in 10.0 mi Calm Calm - N/A   Clear
10:14 PM 66.2 °F - 60.8 °F 83% 30.19 in 10.0 mi NNW 6.9 mph - N/A   Clear
10:34 PM 66.2 °F - 60.8 °F 83% 30.19 in 10.0 mi NNW 5.8 mph - N/A   Mostly Cloudy
10:54 PM 66.2 °F - 59.0 °F 78% 30.19 in 10.0 mi North 6.9 mph - N/A   Mostly Cloudy
11:14 PM 66.2 °F - 59.0 °F 78% 30.20 in 10.0 mi North 5.8 mph - N/A   Scattered Clouds
11:34 PM 66.2 °F - 59.0 °F 78% 30.20 in 10.0 mi NNE 4.6 mph - N/A   Scattered Clouds
11:54 PM 64.4 °F - 57.2 °F 77% 30.20 in 10.0 mi Calm Calm - N/A   Scattered Clouds